Location: Riedlingen
(48.1569°N, 9.4757°E)
Time: 04:02:54
(UTC+02:00)

ISS - Pass Details

Date: 15 May 2021
Orbit: 417 x 422 km, 51.6° (Epoch: 15 June)

Event Time Altitude Azimuth Distance (km) Brightness Sun altitude
Rises 23:37:03 0° 253° (WSW) 2,361 0.2 -19.0°
Reaches altitude 10° 23:39:09 10° 255° (WSW) 1,500 -0.8 -19.2°
Maximum altitude 23:42:31 72° 340° (NNW) 446 -3.6 -19.4°
Drops below altitude 10° 23:45:54 10° 66° (ENE) 1,508 -0.9 -19.6°
Sets 23:48:01 0° 69° (ENE) 2,375 0.1 -19.8°
